[[{"header":{"parameterUnit":"m.s-1","parameterCategory":1,"la1":30.2991,"la2":30.254,"lo1":-89.0895,"lo2":-89.0444,"dy":0.0017,"dx":0.0017,"nx":28,"ny":28,"refTime":"2024-05-15T21:00:00:Z","depth":0,"parameterNumber":2,"parameterNumberName":"U-component_of_WINDS"},"data":[0,0,0,0,0,0,0,0,0,0,0,0,0,0,0,0,0,0,0,0,0,0,0,0,0,0,0,0,0,0,0,0,0,0,0,0,0,0,0,0,0,0,0,0,0,0,0,0,0,0,0,0,0,0,0,0,0,0,-1.9632,-1.9633,0,-1.974,-1.9741,-1.9742,-1.9797,-1.9797,-1.9797,-1.9797,-1.9905,-1.9908,-1.9911,0,0,0,0,0,0,0,0,0,0,0,0,0,-1.9471,-1.9474,-1.9632,-1.9633,-1.9634,-1.974,-1.9741,-1.9743,-1.9797,-1.9797,-1.9797,-1.9797,-1.9904,-1.9908,-1.9911,0,0,0,0,0,0,0,0,0,0,0,0,0,-1.9556,-1.9475,-1.9632,-1.9674,-1.9679,-1.9739,-1.9741,-1.9743,-1.9797,-1.9797,-1.9797,-1.9797,-1.9903,-1.9907,-1.9912,-1.9937,0,0,-1.9925,-1.9927,0,0,0,0,0,0,0,0,-1.9551,-1.9562,-1.9667,-1.9671,-1.9677,-1.9755,-1.9725,-1.9808,-1.9797,-1.9752,-1.9797,-1.9797,-1.9855,-1.9863,-1.9883,-1.9942,-1.9947,-1.9925,-1.9928,-1.9929,-1.9931,0,0,0,0,0,0,0,-1.9546,-1.9558,-1.9675,-1.9668,-1.9674,-1.9688,-1.97,-1.9741,-1.9802,-1.9756,-1.976,-1.9772,-1.9858,-1.9879,-1.9886,-1.9948,-1.9925,-1.9929,-1.9931,-1.9933,-2.0034,-2.0035,0,0,0,0,0,0,-1.9533,-1.9553,-1.9671,-1.9678,-1.9613,-1.9691,-1.9704,-1.973,-1.9802,-1.9813,-1.9772,-1.9775,-1.9872,-1.9881,-1.989,-1.9926,-1.9929,-1.9933,-1.9936,-2.0034,-2.0035,-2.0035,0,0,0,0,0,0,-1.9529,-1.9543,-1.9667,-1.9616,-1.9633,-1.9693,-1.9722,-1.9732,-1.9753,-1.9814,-1.9825,-1.9783,-1.9872,-1.9884,-1.9925,-1.993,-1.9935,-1.9939,-2.0034,-2.0034,-2.0035,-1.9996,0,0,0,0,0,0,-1.9524,-1.9541,-1.9552,-1.9616,-1.9636,-1.97,-1.9722,-1.9734,-1.9761,-1.9765,-1.9827,-1.9837,-1.9873,-1.9919,-1.993,-1.9936,-1.9943,-2.0034,-2.0034,-2.0035,-1.9997,-1.9994,-1.9993,0,0,0,0,0,-1.9519,-1.9535,-1.9552,-1.9566,-1.965,-1.97,-1.9711,-1.9753,-1.9761,-1.9772,-1.9811,-1.9835,-1.9928,-1.9923,-1.9935,-1.9943,-2.0034,-2.0034,-2.0034,-1.9998,-1.9995,-1.9993,0,0,0,0,0,0,-1.9469,-1.9545,-1.9564,-1.9602,-1.9644,-1.9709,-1.9724,-1.9749,-1.9789,-1.9791,-1.9841,-1.9855,-1.9891,-1.9921,-1.9914,-1.9972,-1.9983,-1.9986,-1.9951,-1.9949,-1.9947,-1.9939,-1.9946,0,0,0,0,0,-1.9462,-1.9497,-1.9562,-1.9589,-1.961,-1.9663,-1.9687,-1.9716,-1.9761,-1.9779,-1.9821,-1.9864,-1.9903,-1.9928,-1.9967,-2.0002,-2.0016,-2.0013,-2.0011,-2.0009,-2.0011,-2.0033,-2.0032,-2.0036,-2.0036,-2.0036,0,0,-1.9449,-1.9495,-1.9514,-1.9581,-1.9617,-1.9652,-1.9678,-1.9713,-1.974,-1.9784,-1.9826,-1.9859,-1.991,-1.9948,-1.9967,-1.9974,-2.0014,-2.001,-2.0007,-2.0011,-2.0033,-2.0033,-2.0032,-2.0036,-2.0036,-2.0036,0,0,-1.9443,-1.9481,-1.9509,-1.9545,-1.96,-1.9636,-1.9643,-1.9705,-1.9728,-1.9771,-1.9806,-1.9838,-1.9904,-1.9939,-1.9966,-1.9975,-1.9999,-1.9987,-1.9975,-1.9996,-1.9996,-1.9996,-2.0,-2.0001,-1.9988,-1.9988,-1.9988,0,-1.942,-1.9474,-1.952,-1.9555,-1.9583,-1.9626,-1.9655,-1.9688,-1.9752,-1.9771,-1.9778,-1.9863,-1.9901,-1.9949,-1.9951,-1.9971,-1.998,-1.998,-1.9992,-1.9993,-1.9993,-1.9998,-1.9999,-1.9986,-1.9987,-1.9987,-1.9987,0,-1.9443,-1.948,-1.9496,-1.9559,-1.959,-1.9621,-1.9671,-1.9697,-1.9723,-1.9758,-1.9802,-1.9849,-1.9899,-1.9912,-1.9938,-1.9964,-1.9967,-1.9983,-1.9995,-1.9991,-1.9996,-1.9998,-1.9984,-1.9984,-1.9985,-1.9985,0,0,-1.9407,-1.9496,-1.9501,-1.9531,-1.9596,-1.9626,-1.9659,-1.9709,-1.973,-1.9774,-1.9803,-1.9859,-1.9875,-1.9905,-1.9935,-1.9953,-1.9959,-1.9967,-1.9969,-1.9964,-1.9992,-1.9979,-1.9981,-1.9975,-1.9976,-1.9976,-1.9987,0,-1.9411,-1.9474,-1.9517,-1.9563,-1.9598,-1.9641,-1.967,-1.9713,-1.9747,-1.9782,-1.9819,-1.9858,-1.9875,-1.9894,-1.9914,-1.9954,-1.9965,-1.9954,-2.0003,-2.0004,-1.9989,-1.9983,-1.997,-1.9979,-1.999,-1.999,-1.999,0,-1.9423,-1.9466,-1.9516,-1.9579,-1.9595,-1.9621,-1.9671,-1.9704,-1.9754,-1.9777,-1.9812,-1.9843,-1.9881,-1.989,-1.9943,-1.9934,-1.9957,-1.998,-1.9982,-1.9988,-1.9997,-1.9989,-1.9982,-1.9983,-1.9994,-1.9993,-1.9993,0,-1.9392,-1.9463,-1.9503,-1.9527,-1.96,-1.9618,-1.9649,-1.9699,-1.9727,-1.9771,-1.9789,-1.9836,-1.9862,-1.9898,-1.9941,-1.9944,-1.999,-2.0003,-2.001,-2.0009,-2.0018,-2.0017,-2.0014,-2.0032,-2.0032,-2.0032,-2.0032,0,-1.9392,-1.942,-1.949,-1.9514,-1.9548,-1.9598,-1.963,-1.9665,-1.9709,-1.9741,-1.9781,-1.9809,-1.9865,-1.9901,-1.9935,-1.9974,-1.9985,-2.0005,-2.0014,-2.0002,-1.9999,-2.0018,-2.0018,-2.0033,-2.0032,-2.0032,-2.0032,0,-1.9363,-1.9411,-1.9457,-1.9523,-1.9541,-1.9563,-1.962,-1.9645,-1.9682,-1.9722,-1.9734,-1.9791,-1.9836,-1.9883,-1.9943,-1.9966,-2.0004,-2.0016,-1.9987,-1.9992,-1.9997,-1.9996,-2.0007,-2.0011,-2.0025,-2.0025,-2.0025,0,-1.9359,-1.9383,-1.9452,-1.9477,-1.9508,-1.9546,-1.9576,-1.9626,-1.9654,-1.9714,-1.9732,-1.978,-1.982,-1.9889,-1.9936,-1.9983,-1.9997,-1.9997,-2.0004,-1.9991,-1.9997,-1.9995,-1.9998,-1.9995,-1.9994,-1.9994,-1.9994,0,-1.9348,-1.9371,-1.9411,-1.9461,-1.9495,-1.9536,-1.9579,-1.9597,-1.9655,-1.9686,-1.9732,-1.9764,-1.9826,-1.9873,-1.9926,-1.9958,-1.9986,-1.9991,-1.9996,-1.9983,-1.9966,-1.9976,-1.9981,-1.9991,-1.9991,-1.9991,-1.9991,-1.9991,-1.9332,-1.9355,-1.9408,-1.9453,-1.9491,-1.953,-1.9557,-1.9598,-1.9638,-1.9694,-1.9721,-1.9767,-1.9818,-1.9892,-1.9923,-1.9961,-1.9969,-1.9975,-1.9976,-1.9977,-1.9974,-1.996,-1.997,-1.997,-1.9971,-1.9971,-1.9971,0,-1.9323,-1.9359,-1.94,-1.9459,-1.9494,-1.9519,-1.9568,-1.9595,-1.9636,-1.9682,-1.9722,-1.9776,-1.9822,-1.9873,-1.9923,-1.9943,-1.9957,-1.9954,-1.9953,-1.996,-1.9964,-1.9955,-1.9942,-1.9942,-1.9942,-1.9942,-1.9942,-1.9942,-1.9322,-1.9363,-1.9393,-1.9453,-1.949,-1.9537,-1.9563,-1.96,-1.9636,-1.9695,-1.9734,-1.9768,-1.9816,-1.987,-1.9913,-1.9927,-1.9944,-1.9937,-1.9955,-1.9957,-1.996,-1.9962,-1.9954,-1.994,-1.994,-1.9948,-1.9948,-1.9948]},{"header":{"parameterUnit":"m.s-1","parameterCategory":1,"la1":30.2991,"la2":30.254,"lo1":-89.0895,"lo2":-89.0444,"dy":0.0017,"dx":0.0017,"nx":28,"ny":28,"refTime":"2024-05-15T21:00:00:Z","depth":0,"parameterNumber":3,"parameterNumberName":"V-component_of_WINDS"},"data":[0,0,0,0,0,0,0,0,0,0,0,0,0,0,0,0,0,0,0,0,0,0,0,0,0,0,0,0,0,0,0,0,0,0,0,0,0,0,0,0,0,0,0,0,0,0,0,0,0,0,0,0,0,0,0,0,0,0,6.1884,6.1884,0,6.1908,6.1908,6.1909,6.1839,6.1837,6.1835,6.1833,6.1857,6.1859,6.1862,0,0,0,0,0,0,0,0,0,0,0,0,0,6.1776,6.1779,6.1884,6.1884,6.1884,6.1908,6.1908,6.1909,6.184,6.1837,6.1835,6.1832,6.1856,6.1859,6.1862,0,0,0,0,0,0,0,0,0,0,0,0,0,6.1814,6.1779,6.1884,6.1853,6.185,6.1908,6.1908,6.1909,6.184,6.1837,6.1834,6.1831,6.1855,6.1859,6.1862,6.195,0,0,6.1874,6.1876,0,0,0,0,0,0,0,0,6.1812,6.1818,6.1857,6.1855,6.1852,6.1868,6.1879,6.1923,6.1841,6.1844,6.1833,6.1829,6.1863,6.1866,6.1877,6.1952,6.1953,6.1875,6.1877,6.1879,6.188,0,0,0,0,0,0,0,6.1809,6.1817,6.1893,6.1858,6.1855,6.1837,6.1839,6.1887,6.1871,6.1844,6.1839,6.1843,6.1861,6.1874,6.1877,6.1953,6.1875,6.1878,6.188,6.1882,6.2101,6.2104,0,0,0,0,0,0,6.1811,6.1815,6.1893,6.1894,6.1824,6.1842,6.1844,6.1866,6.187,6.1868,6.1845,6.1839,6.1869,6.1873,6.1878,6.1981,6.1879,6.1882,6.1885,6.2097,6.2101,6.2105,0,0,0,0,0,0,6.1809,6.1819,6.1892,6.1853,6.1861,6.1847,6.1872,6.1868,6.1881,6.1872,6.1868,6.1862,6.1866,6.1872,6.1933,6.1981,6.1884,6.1888,6.2093,6.2099,6.2103,6.2189,0,0,0,0,0,0,6.1806,6.1818,6.1852,6.1854,6.1863,6.1947,6.1875,6.1871,6.1888,6.188,6.1886,6.1884,6.1864,6.1928,6.1937,6.1985,6.1891,6.2089,6.2096,6.2102,6.2182,6.2197,6.2209,0,0,0,0,0,6.1803,6.1875,6.1854,6.1864,6.1905,6.195,6.1955,6.1931,6.1892,6.1926,6.192,6.1884,6.1975,6.1934,6.1944,6.1994,6.2086,6.2094,6.2101,6.2176,6.2194,6.2209,0,0,0,0,0,0,6.1877,6.1874,6.1851,6.1927,6.1939,6.1938,6.198,6.1951,6.1975,6.1966,6.1936,6.1938,6.2004,6.2005,6.196,6.208,6.2023,6.2033,6.2077,6.2093,6.2107,6.2105,6.1894,0,0,0,0,0,6.1903,6.194,6.1935,6.2002,6.2009,6.1994,6.2012,6.1993,6.2005,6.2009,6.2008,6.202,6.2051,6.2072,6.2101,6.2182,6.2182,6.2221,6.2235,6.2246,6.2255,6.2298,6.2315,6.2131,6.2131,6.2131,0,0,6.1955,6.1958,6.1983,6.2017,6.2024,6.2063,6.1998,6.2042,6.207,6.2016,6.2073,6.2073,6.2084,6.2156,6.2187,6.2158,6.2306,6.2256,6.2265,6.2268,6.2308,6.2325,6.2341,6.2136,6.2135,6.2134,0,0,6.2071,6.2077,6.2133,6.2142,6.2155,6.2144,6.2158,6.2161,6.2159,6.2216,6.2176,6.2209,6.2264,6.2274,6.2286,6.2406,6.2374,6.2416,6.2487,6.2529,6.2544,6.2557,6.2599,6.2615,6.2425,6.2425,6.2425,0,6.2134,6.2191,6.2166,6.2212,6.2228,6.2181,6.2238,6.2248,6.2269,6.2281,6.2249,6.2316,6.2321,6.2394,6.2423,6.2435,6.2449,6.2415,6.2544,6.2556,6.2568,6.2608,6.2625,6.243,6.243,6.2429,6.2429,0,6.2269,6.2309,6.2353,6.2375,6.2396,6.2447,6.2429,6.2453,6.2433,6.2425,6.2484,6.2488,6.2516,6.2532,6.2512,6.2603,6.2585,6.2549,6.2492,6.2591,6.2629,6.2644,6.2438,6.2436,6.2434,6.2433,0,0,6.2432,6.244,6.2456,6.2466,6.2476,6.2507,6.2556,6.2584,6.2605,6.2621,6.2662,6.2709,6.2676,6.269,6.2671,6.2708,6.2803,6.2668,6.2668,6.2693,6.2904,6.2931,6.2949,6.2782,6.2785,6.2787,6.2903,0,6.2545,6.2631,6.2609,6.2693,6.273,6.2687,6.2729,6.2741,6.2735,6.2765,6.2759,6.2793,6.2747,6.2755,6.279,6.2785,6.2845,6.2776,6.2819,6.2821,6.2818,6.2969,6.2997,6.3106,6.2917,6.292,6.2921,0,6.269,6.2712,6.28,6.2805,6.282,6.2859,6.2883,6.2913,6.2924,6.2917,6.2934,6.2907,6.2955,6.2898,6.2964,6.2918,6.2934,6.2934,6.2938,6.2941,6.2877,6.2976,6.314,6.3156,6.2944,6.2942,6.2941,0,6.28,6.2852,6.2911,6.2921,6.2928,6.2957,6.2961,6.2969,6.2988,6.3009,6.3021,6.3047,6.3062,6.3083,6.3064,6.3024,6.3133,6.3074,6.3129,6.3129,6.3153,6.3152,6.3323,6.3164,6.3164,6.3164,6.3164,0,6.2929,6.2985,6.2961,6.2998,6.3059,6.3033,6.3094,6.3093,6.3102,6.3137,6.3101,6.3135,6.3108,6.314,6.3125,6.3182,6.3189,6.3185,6.318,6.3188,6.3189,6.3198,6.319,6.3168,6.3167,6.3166,6.3166,0,6.3062,6.3048,6.311,6.3112,6.3114,6.3159,6.3161,6.3194,6.3186,6.3232,6.3241,6.3229,6.3264,6.3248,6.3284,6.3275,6.3348,6.3334,6.3345,6.3341,6.3396,6.3391,6.3579,6.3602,6.3429,6.3431,6.3432,0,6.3145,6.3187,6.3194,6.3215,6.3222,6.3257,6.3276,6.3253,6.3274,6.3291,6.3323,6.3355,6.338,6.3438,6.3432,6.3461,6.3446,6.351,6.345,6.3457,6.3447,6.3445,6.3449,6.3522,6.3524,6.3526,6.3527,0,6.3295,6.3286,6.3315,6.3342,6.3366,6.3386,6.3403,6.3422,6.34,6.3425,6.3461,6.3481,6.3519,6.3551,6.3576,6.358,6.355,6.3546,6.356,6.3569,6.3573,6.3572,6.3377,6.3542,6.354,6.3539,6.3538,6.3538,6.3405,6.3441,6.3451,6.3485,6.3495,6.3512,6.3544,6.354,6.357,6.36,6.3584,6.3626,6.3637,6.3667,6.3675,6.3707,6.3682,6.3703,6.3708,6.3713,6.3721,6.3568,6.3712,6.3711,6.3711,6.3711,6.371,0,6.3553,6.3558,6.3589,6.3614,6.3641,6.3611,6.3628,6.3652,6.369,6.3702,6.3728,6.3769,6.3801,6.3798,6.3827,6.3853,6.3841,6.3862,6.386,6.3861,6.3742,6.3727,6.3872,6.3872,6.3872,6.3872,6.3872,6.3872,6.3633,6.3692,6.3684,6.3747,6.3751,6.3793,6.3805,6.3821,6.3831,6.3879,6.3905,6.3903,6.391,6.3939,6.3966,6.3965,6.3977,6.4004,6.3997,6.3885,6.3869,6.3854,6.384,6.4006,6.4007,6.4113,6.4114,6.4115]}]]